Flag for Greenland Weather past 2 weeks in Thule Air Base, Greenland

Now
36 °F

Chilly.


Feels Like: 36 °F
Forecast: 38 / 44 °F
Wind: No wind

Location: Thule A. B.

Current Time: Aug 2, 2015 at 5:26:28 AM

Latest Report: Aug 2, 2015 at 4:58 AM


Visibility: N/A

Pressure: 30.13 "Hg

Humidity: 87%

Dew point: 32 °F

Location of Thule Air BaseLocation

Historic Weather in Thule Air Base — Graph

°F

Thule Air Base temperature yesterday

Maximum temperature yesterday: 43 °F (at 12:58 AM)
Minimum temperature yesterday: 37 °F (at 6:03 PM)
Average temperature yesterday: 40 °F

Past Weeks' High & Low Weather Summary

 TemperatureHumidityPressure
High59 °F (Jul 18, 10:58 AM)93% (Jul 24, 1:02 AM)30.23 "Hg (Jul 24, 1:02 AM)
Low36 °F (Jul 31, 1:03 AM)38% (Jul 18, 3:58 PM)29.81 "Hg (Jul 21, 1:58 PM)
Average45 °F75%30.02 "Hg
* Reported Jul 18 3:58 AM — Aug 2 3:58 AM, Thule Air Base, Weather by CustomWeather, © 2015

Note: Actual official high and low records may vary slightly from our data, if they occured in-between our weather recording intervals... More about our weather records

Advertising

Thule Air Base weather history for previous 24 hours

 ConditionsComfort  
Time TempWeatherWind HumidityBarometerVisibility
3:58 AM
Sun, Aug 2
36 °FChilly.No wind87%30.13 "HgN/A
2:58 AM36 °FChilly.2 mph87%30.13 "HgN/A
1:58 AM36 °FFog.No wind87%30.13 "Hg5 mi
12:58 AM36 °FFog.No wind87%30.13 "Hg1 mi
12:03 AM36 °FFog.No wind87%30.19 "Hg1 mi
10:58 PM
Sat, Aug 1
37 °FFog.1 mph87%30.14 "Hg0 mi
9:58 PM37 °FLow clouds.No wind87%30.13 "HgN/A
8:58 PM37 °FFog.No wind87%30.14 "Hg1 mi
7:58 PM37 °FFog.5 mph93%30.14 "Hg0 mi
6:58 PM37 °FFog.6 mph87%30.13 "Hg1 mi
6:03 PM37 °FFog.6 mph93%30.18 "Hg1 mi
6:01 PM39 °FFog.6 mph87%30.18 "Hg1 mi
5:02 PM39 °FFog.7 mph87%30.18 "Hg1 mi
4:02 PM41 °FFog.6 mph81%30.17 "Hg2 mi
2:58 PM39 °FLow clouds.8 mph87%30.12 "Hg5 mi
2:03 PM39 °FFog.9 mph87%30.18 "Hg1 mi
1:58 PM39 °FFog.8 mph87%30.13 "Hg1 mi
1:01 PM41 °FLow clouds.5 mph81%30.18 "Hg3 mi
12:04 PM39 °FFog.6 mph87%30.18 "Hg1 mi
11:58 AM39 °FFog.3 mph87%30.13 "Hg1 mi
11:03 AM39 °FFog.6 mph87%30.18 "Hg1 mi
9:58 AM43 °FSunny.6 mph81%30.13 "HgN/A
9:02 AM39 °FFog.No wind93%30.19 "Hg1 mi
8:58 AM39 °FFog.No wind93%30.14 "Hg1 mi
7:58 AM39 °FFog.No wind87%30.14 "Hg1 mi
6:58 AM39 °FChilly.No wind87%30.14 "HgN/A
5:58 AM39 °FChilly.6 mph93%30.14 "HgN/A
Weather by CustomWeather, © 2015

See weather overviewHow to use our weather pages